Year,Month,Day,Hour,Minute,Value (Times are PST for temperature in C)
2014,06,21,00,00,9.30
2014,06,21,00,01,9.40
2014,06,21,00,02,9.40
2014,06,21,00,03,9.40
2014,06,21,00,04,9.50
2014,06,21,00,05,9.50
2014,06,21,00,06,9.50
2014,06,21,00,07,9.50
2014,06,21,00,08,9.50
2014,06,21,00,09,9.40
2014,06,21,00,10,9.40
2014,06,21,00,11,9.40
2014,06,21,00,12,9.40
2014,06,21,00,13,9.30
2014,06,21,00,14,9.30
2014,06,21,00,15,9.30
2014,06,21,00,16,9.30
2014,06,21,00,17,9.20
2014,06,21,00,18,9.20
2014,06,21,00,19,9.20
2014,06,21,00,20,9.20
2014,06,21,00,21,9.10
2014,06,21,00,22,9.10
2014,06,21,00,23,9.10
2014,06,21,00,24,9.20
2014,06,21,00,25,9.20
2014,06,21,00,26,9.20
2014,06,21,00,27,9.20
2014,06,21,00,28,9.20
2014,06,21,00,29,9.20
2014,06,21,00,30,9.30
2014,06,21,00,31,9.40
2014,06,21,00,32,9.40
2014,06,21,00,33,9.50
2014,06,21,00,34,9.50
2014,06,21,00,35,9.50
2014,06,21,00,36,9.50
2014,06,21,00,37,9.50
2014,06,21,00,38,9.50
2014,06,21,00,39,9.40
2014,06,21,00,40,9.40
2014,06,21,00,41,9.40
2014,06,21,00,42,9.30
2014,06,21,00,43,9.30
2014,06,21,00,44,9.20
2014,06,21,00,45,9.20
2014,06,21,00,46,9.20
2014,06,21,00,47,9.10
2014,06,21,00,48,9.10
2014,06,21,00,49,9.10
2014,06,21,00,50,9.10
2014,06,21,00,51,9.10
2014,06,21,00,52,9.00
2014,06,21,00,53,9.00
2014,06,21,00,54,9.00
2014,06,21,00,55,8.90
2014,06,21,00,56,8.90
2014,06,21,00,57,8.90
2014,06,21,00,58,8.90
2014,06,21,00,59,8.90
2014,06,21,01,00,8.80
2014,06,21,01,01,8.80
2014,06,21,01,02,8.80
2014,06,21,01,03,8.80
2014,06,21,01,04,8.80
2014,06,21,01,05,8.80
2014,06,21,01,06,8.80
2014,06,21,01,07,8.80
2014,06,21,01,08,8.80
2014,06,21,01,09,8.80
2014,06,21,01,10,8.70
2014,06,21,01,11,8.70
2014,06,21,01,12,8.70
2014,06,21,01,13,8.60
2014,06,21,01,14,8.60
2014,06,21,01,15,8.60
2014,06,21,01,16,8.60
2014,06,21,01,17,8.60
2014,06,21,01,18,8.60
2014,06,21,01,19,8.60
2014,06,21,01,20,8.60
2014,06,21,01,21,8.60
2014,06,21,01,22,8.60
2014,06,21,01,23,8.60
2014,06,21,01,24,8.50
2014,06,21,01,25,8.50
2014,06,21,01,26,8.50
2014,06,21,01,27,8.50
2014,06,21,01,28,8.50
2014,06,21,01,29,8.40
2014,06,21,01,30,8.40
2014,06,21,01,31,8.40
2014,06,21,01,32,8.40
2014,06,21,01,33,8.40
2014,06,21,01,34,8.30
2014,06,21,01,35,8.30
2014,06,21,01,36,8.30
2014,06,21,01,37,8.30
2014,06,21,01,38,8.30
2014,06,21,01,39,8.30
2014,06,21,01,40,8.30
2014,06,21,01,41,8.30
2014,06,21,01,42,8.30
2014,06,21,01,43,8.30
2014,06,21,01,44,8.30
2014,06,21,01,45,8.30
2014,06,21,01,46,8.30
2014,06,21,01,47,8.30
2014,06,21,01,48,8.30
2014,06,21,01,49,8.30
2014,06,21,01,50,8.30
2014,06,21,01,51,8.30
2014,06,21,01,52,8.30
2014,06,21,01,53,8.30
2014,06,21,01,54,8.20
2014,06,21,01,55,8.20
2014,06,21,01,56,8.20
2014,06,21,01,57,8.20
2014,06,21,01,58,8.20
2014,06,21,01,59,8.20
2014,06,21,02,00,8.20
2014,06,21,02,01,8.20
2014,06,21,02,02,8.20
2014,06,21,02,03,8.20
2014,06,21,02,04,8.20
2014,06,21,02,05,8.20
2014,06,21,02,06,8.20
2014,06,21,02,07,8.20
2014,06,21,02,08,8.20
2014,06,21,02,09,8.20
2014,06,21,02,10,8.20
2014,06,21,02,11,8.20
2014,06,21,02,12,8.20
2014,06,21,02,13,8.20
2014,06,21,02,14,8.20
2014,06,21,02,15,8.20
2014,06,21,02,16,8.20
2014,06,21,02,17,8.10
2014,06,21,02,18,8.10
2014,06,21,02,19,8.10
2014,06,21,02,20,8.10
2014,06,21,02,21,8.10
2014,06,21,02,22,8.00
2014,06,21,02,23,8.00
2014,06,21,02,24,7.90
2014,06,21,02,25,7.90
2014,06,21,02,26,7.90
2014,06,21,02,27,7.90
2014,06,21,02,28,7.90
2014,06,21,02,29,7.80
2014,06,21,02,30,7.80
2014,06,21,02,31,7.80
2014,06,21,02,32,7.80
2014,06,21,02,33,7.80
2014,06,21,02,34,7.80
2014,06,21,02,35,7.80
2014,06,21,02,36,7.80
2014,06,21,02,37,7.80
2014,06,21,02,38,7.80
2014,06,21,02,39,7.80
2014,06,21,02,40,7.80
2014,06,21,02,41,7.80
2014,06,21,02,42,7.80
2014,06,21,02,43,7.70
2014,06,21,02,44,7.70
2014,06,21,02,45,7.70
2014,06,21,02,46,7.70
2014,06,21,02,47,7.70
2014,06,21,02,48,7.70
2014,06,21,02,49,7.80
2014,06,21,02,50,7.70
2014,06,21,02,51,7.80
2014,06,21,02,52,7.80
2014,06,21,02,53,7.80
2014,06,21,02,54,7.80
2014,06,21,02,55,7.80
2014,06,21,02,56,7.80
2014,06,21,02,57,7.80
2014,06,21,02,58,7.80
2014,06,21,02,59,7.80
2014,06,21,03,00,7.80
2014,06,21,03,01,7.80
2014,06,21,03,02,7.80
2014,06,21,03,03,7.80
2014,06,21,03,04,7.80
2014,06,21,03,05,7.80
2014,06,21,03,06,7.80
2014,06,21,03,07,7.80
2014,06,21,03,08,7.70
2014,06,21,03,09,7.70
2014,06,21,03,10,7.70
2014,06,21,03,11,7.70
2014,06,21,03,12,7.70
2014,06,21,03,13,7.70
2014,06,21,03,14,7.70
2014,06,21,03,15,7.70
2014,06,21,03,16,7.70
2014,06,21,03,17,7.80
2014,06,21,03,18,7.80
2014,06,21,03,19,7.80
2014,06,21,03,20,7.80
2014,06,21,03,21,7.80
2014,06,21,03,22,7.80
2014,06,21,03,23,7.70
2014,06,21,03,24,7.70
2014,06,21,03,25,7.70
2014,06,21,03,26,7.70
2014,06,21,03,27,7.70
2014,06,21,03,28,7.70
2014,06,21,03,29,7.80
2014,06,21,03,30,7.80
2014,06,21,03,31,7.90
2014,06,21,03,32,8.00
2014,06,21,03,33,8.00
2014,06,21,03,34,8.10
2014,06,21,03,35,8.10
2014,06,21,03,36,8.10
2014,06,21,03,37,8.20
2014,06,21,03,38,8.20
2014,06,21,03,39,8.20
2014,06,21,03,40,8.20
2014,06,21,03,41,8.20
2014,06,21,03,42,8.20
2014,06,21,03,43,8.10
2014,06,21,03,44,8.10
2014,06,21,03,45,8.10
2014,06,21,03,46,8.10
2014,06,21,03,47,8.10
2014,06,21,03,48,8.10
2014,06,21,03,49,8.00
2014,06,21,03,50,8.00
2014,06,21,03,51,8.10
2014,06,21,03,52,8.10
2014,06,21,03,53,8.20
2014,06,21,03,54,8.30
2014,06,21,03,55,8.30
2014,06,21,03,56,8.40
2014,06,21,03,57,8.50
2014,06,21,03,58,8.50
2014,06,21,03,59,8.60
2014,06,21,04,00,8.60
2014,06,21,04,01,8.60
2014,06,21,04,02,8.60
2014,06,21,04,03,8.60
2014,06,21,04,04,8.50
2014,06,21,04,05,8.50
2014,06,21,04,06,8.50
2014,06,21,04,07,8.40
2014,06,21,04,08,8.40
2014,06,21,04,09,8.40
2014,06,21,04,10,8.30
2014,06,21,04,11,8.30
2014,06,21,04,12,8.30
2014,06,21,04,13,8.30
2014,06,21,04,14,8.30
2014,06,21,04,15,8.20
2014,06,21,04,16,8.20
2014,06,21,04,17,8.20
2014,06,21,04,18,8.20
2014,06,21,04,19,8.20
2014,06,21,04,20,8.20
2014,06,21,04,21,8.10
2014,06,21,04,22,8.10
2014,06,21,04,23,8.10
2014,06,21,04,24,8.10
2014,06,21,04,25,8.10
2014,06,21,04,26,8.10
2014,06,21,04,27,8.10
2014,06,21,04,28,8.10
2014,06,21,04,29,8.10
2014,06,21,04,30,8.10
2014,06,21,04,31,8.20
2014,06,21,04,32,8.10
2014,06,21,04,33,8.10
2014,06,21,04,34,8.10
2014,06,21,04,35,8.10
2014,06,21,04,36,8.10
2014,06,21,04,37,8.00
2014,06,21,04,38,8.00
2014,06,21,04,39,7.90
2014,06,21,04,40,7.90
2014,06,21,04,41,7.90
2014,06,21,04,42,7.80
2014,06,21,04,43,7.80
2014,06,21,04,44,7.80
2014,06,21,04,45,7.80
2014,06,21,04,46,7.80
2014,06,21,04,47,7.70
2014,06,21,04,48,7.70
2014,06,21,04,49,7.70
2014,06,21,04,50,7.70
2014,06,21,04,51,7.70
2014,06,21,04,52,7.70
2014,06,21,04,53,7.70
2014,06,21,04,54,7.60
2014,06,21,04,55,7.60
2014,06,21,04,56,7.60
2014,06,21,04,57,7.60
2014,06,21,04,58,7.60
2014,06,21,04,59,7.60
2014,06,21,05,00,7.60
2014,06,21,05,01,7.60
2014,06,21,05,02,7.60
2014,06,21,05,03,7.60
2014,06,21,05,04,7.60
2014,06,21,05,05,7.70
2014,06,21,05,06,7.60
2014,06,21,05,07,7.60
2014,06,21,05,08,7.60
2014,06,21,05,09,7.60
2014,06,21,05,10,7.60
2014,06,21,05,11,7.60
2014,06,21,05,12,7.60
2014,06,21,05,13,7.60
2014,06,21,05,14,7.60
2014,06,21,05,15,7.60
2014,06,21,05,16,7.70
2014,06,21,05,17,7.70
2014,06,21,05,18,7.70
2014,06,21,05,19,7.70
2014,06,21,05,20,7.70
2014,06,21,05,21,7.70
2014,06,21,05,22,7.70
2014,06,21,05,23,7.70
2014,06,21,05,24,7.70
2014,06,21,05,25,7.70
2014,06,21,05,26,7.70
2014,06,21,05,27,7.70
2014,06,21,05,28,7.80
2014,06,21,05,29,7.80
2014,06,21,05,30,7.80
2014,06,21,05,31,7.80
2014,06,21,05,32,7.80
2014,06,21,05,33,7.80
2014,06,21,05,34,7.80
2014,06,21,05,35,7.80
2014,06,21,05,36,7.80
2014,06,21,05,37,7.80
2014,06,21,05,38,7.80
2014,06,21,05,39,7.80
2014,06,21,05,40,7.80
2014,06,21,05,41,7.80
2014,06,21,05,42,7.80
2014,06,21,05,43,7.80
2014,06,21,05,44,7.90
2014,06,21,05,45,7.80
2014,06,21,05,46,7.80
2014,06,21,05,47,7.90
2014,06,21,05,48,7.90
2014,06,21,05,49,7.90
2014,06,21,05,50,7.90
2014,06,21,05,51,7.90
2014,06,21,05,52,7.90
2014,06,21,05,53,7.90
2014,06,21,05,54,7.90
2014,06,21,05,55,7.90
2014,06,21,05,56,7.90
2014,06,21,05,57,7.90
2014,06,21,05,58,8.00
2014,06,21,05,59,8.00
2014,06,21,06,00,8.00
2014,06,21,06,01,8.10
2014,06,21,06,02,8.10
2014,06,21,06,03,8.10
2014,06,21,06,04,8.10
2014,06,21,06,05,8.10
2014,06,21,06,06,8.10
2014,06,21,06,07,8.10
2014,06,21,06,08,8.10
2014,06,21,06,09,8.10
2014,06,21,06,10,8.20
2014,06,21,06,11,8.20
2014,06,21,06,12,8.20
2014,06,21,06,13,8.20
2014,06,21,06,14,8.20
2014,06,21,06,15,8.20
2014,06,21,06,16,8.20
2014,06,21,06,17,8.20
2014,06,21,06,18,8.30
2014,06,21,06,19,8.30
2014,06,21,06,20,8.30
2014,06,21,06,21,8.40
2014,06,21,06,22,8.40
2014,06,21,06,23,8.40
2014,06,21,06,24,8.40
2014,06,21,06,25,8.50
2014,06,21,06,26,8.50
2014,06,21,06,27,8.60
2014,06,21,06,28,8.60
2014,06,21,06,29,8.60
2014,06,21,06,30,8.60
2014,06,21,06,31,8.70
2014,06,21,06,32,8.70
2014,06,21,06,33,8.70
2014,06,21,06,34,8.80
2014,06,21,06,35,8.80
2014,06,21,06,36,8.80
2014,06,21,06,37,8.80
2014,06,21,06,38,8.90
2014,06,21,06,39,8.90
2014,06,21,06,40,8.90
2014,06,21,06,41,8.90
2014,06,21,06,42,8.90
2014,06,21,06,43,9.00
2014,06,21,06,44,9.00
2014,06,21,06,45,9.00
2014,06,21,06,46,9.10
2014,06,21,06,47,9.10
2014,06,21,06,48,9.20
2014,06,21,06,49,9.20
2014,06,21,06,50,9.30
2014,06,21,06,51,9.30
2014,06,21,06,52,9.40
2014,06,21,06,53,9.40
2014,06,21,06,54,9.50
2014,06,21,06,55,9.50
2014,06,21,06,56,9.60
2014,06,21,06,57,9.70
2014,06,21,06,58,9.80
2014,06,21,06,59,9.90
2014,06,21,07,00,10.00
2014,06,21,07,01,10.10
2014,06,21,07,02,10.20
2014,06,21,07,03,10.30
2014,06,21,07,04,10.50
2014,06,21,07,05,10.60
2014,06,21,07,06,10.70
2014,06,21,07,07,10.80
2014,06,21,07,08,10.90
2014,06,21,07,09,11.00
2014,06,21,07,10,11.10
2014,06,21,07,11,11.20
2014,06,21,07,12,11.30
2014,06,21,07,13,11.30
2014,06,21,07,14,11.40
2014,06,21,07,15,11.50
2014,06,21,07,16,11.60
2014,06,21,07,17,11.70
2014,06,21,07,18,11.80
2014,06,21,07,19,11.90
2014,06,21,07,20,12.00
2014,06,21,07,21,12.10
2014,06,21,07,22,12.20
2014,06,21,07,23,12.20
2014,06,21,07,24,12.30
2014,06,21,07,25,12.40
2014,06,21,07,26,12.50
2014,06,21,07,27,12.60
2014,06,21,07,28,12.60
2014,06,21,07,29,12.70
2014,06,21,07,30,12.80
2014,06,21,07,31,12.80
2014,06,21,07,32,12.90
2014,06,21,07,33,12.90
2014,06,21,07,34,13.00
2014,06,21,07,35,13.00
2014,06,21,07,36,13.10
2014,06,21,07,37,13.20
2014,06,21,07,38,13.20
2014,06,21,07,39,13.30
2014,06,21,07,40,13.30
2014,06,21,07,41,13.40
2014,06,21,07,42,13.50
2014,06,21,07,43,13.60
2014,06,21,07,44,13.70
2014,06,21,07,45,13.80
2014,06,21,07,46,13.90
2014,06,21,07,47,14.00
2014,06,21,07,48,14.10
2014,06,21,07,49,14.20
2014,06,21,07,50,14.30
2014,06,21,07,51,14.40
2014,06,21,07,52,14.50
2014,06,21,07,53,14.60
2014,06,21,07,54,14.70
2014,06,21,07,55,14.70
2014,06,21,07,56,14.80
2014,06,21,07,57,14.80
2014,06,21,07,58,14.90
2014,06,21,07,59,14.90
2014,06,21,08,00,14.90
2014,06,21,08,01,14.80
2014,06,21,08,02,14.80
2014,06,21,08,03,14.80
2014,06,21,08,04,14.80
2014,06,21,08,05,14.70
2014,06,21,08,06,14.70
2014,06,21,08,07,14.60
2014,06,21,08,08,14.60
2014,06,21,08,09,14.50
2014,06,21,08,10,14.40
2014,06,21,08,11,14.40
2014,06,21,08,12,14.30
2014,06,21,08,13,14.30
2014,06,21,08,14,14.30
2014,06,21,08,15,14.30
2014,06,21,08,16,14.30
2014,06,21,08,17,14.40
2014,06,21,08,18,14.40
2014,06,21,08,19,14.50
2014,06,21,08,20,14.50
2014,06,21,08,21,14.50
2014,06,21,08,22,14.50
2014,06,21,08,23,14.50
2014,06,21,08,24,14.50
2014,06,21,08,25,14.50
2014,06,21,08,26,14.50
2014,06,21,08,27,14.50
2014,06,21,08,28,14.50
2014,06,21,08,29,14.60
2014,06,21,08,30,14.60
2014,06,21,08,31,14.70
2014,06,21,08,32,14.70
2014,06,21,08,33,14.80
2014,06,21,08,34,14.90
2014,06,21,08,35,15.00
2014,06,21,08,36,15.10
2014,06,21,08,37,15.20
2014,06,21,08,38,15.20
2014,06,21,08,39,15.30
2014,06,21,08,40,15.30
2014,06,21,08,41,15.40
2014,06,21,08,42,15.40
2014,06,21,08,43,15.50
2014,06,21,08,44,15.50
2014,06,21,08,45,15.60
2014,06,21,08,46,15.60
2014,06,21,08,47,15.70
2014,06,21,08,48,15.70
2014,06,21,08,49,15.80
2014,06,21,08,50,15.80
2014,06,21,08,51,15.80
2014,06,21,08,52,15.80
2014,06,21,08,53,15.80
2014,06,21,08,54,15.80
2014,06,21,08,55,15.80
2014,06,21,08,56,15.80
2014,06,21,08,57,15.70
2014,06,21,08,58,15.70
2014,06,21,08,59,15.70
2014,06,21,09,00,15.60
2014,06,21,09,01,15.60
2014,06,21,09,02,15.50
2014,06,21,09,03,15.50
2014,06,21,09,04,15.40
2014,06,21,09,05,15.40
2014,06,21,09,06,15.40
2014,06,21,09,07,15.40
2014,06,21,09,08,15.30
2014,06,21,09,09,15.30
2014,06,21,09,10,15.20
2014,06,21,09,11,15.10
2014,06,21,09,12,15.10
2014,06,21,09,13,15.10
2014,06,21,09,14,15.10
2014,06,21,09,15,15.10
2014,06,21,09,16,15.10
2014,06,21,09,17,15.10
2014,06,21,09,18,15.10
2014,06,21,09,19,15.10
2014,06,21,09,20,15.10
2014,06,21,09,21,15.10
2014,06,21,09,22,15.10
2014,06,21,09,23,15.10
2014,06,21,09,24,15.10
2014,06,21,09,25,15.10
2014,06,21,09,26,15.10
2014,06,21,09,27,15.10
2014,06,21,09,28,15.10
2014,06,21,09,29,15.10
2014,06,21,09,30,15.10
2014,06,21,09,31,15.10
2014,06,21,09,32,15.20
2014,06,21,09,33,15.20
2014,06,21,09,34,15.20
2014,06,21,09,35,15.30
2014,06,21,09,36,15.30
2014,06,21,09,37,15.30
2014,06,21,09,38,15.30
2014,06,21,09,39,15.30
2014,06,21,09,40,15.30
2014,06,21,09,41,15.30
2014,06,21,09,42,15.40
2014,06,21,09,43,15.40
2014,06,21,09,44,15.40
2014,06,21,09,45,15.50
2014,06,21,09,46,15.60
2014,06,21,09,47,15.60
2014,06,21,09,48,15.70
2014,06,21,09,49,15.80
2014,06,21,09,50,15.80
2014,06,21,09,51,15.90
2014,06,21,09,52,15.90
2014,06,21,09,53,16.00
2014,06,21,09,54,16.10
2014,06,21,09,55,16.10
2014,06,21,09,56,16.20
2014,06,21,09,57,16.20
2014,06,21,09,58,16.20
2014,06,21,09,59,16.30
2014,06,21,10,00,16.30
2014,06,21,10,01,16.40
2014,06,21,10,02,16.40
2014,06,21,10,03,16.50
2014,06,21,10,04,16.50
2014,06,21,10,05,16.50
2014,06,21,10,06,16.50
2014,06,21,10,07,16.50
2014,06,21,10,08,16.50
2014,06,21,10,09,16.50
2014,06,21,10,10,16.60
2014,06,21,10,11,16.70
2014,06,21,10,12,16.70
2014,06,21,10,13,16.70
2014,06,21,10,14,16.80
2014,06,21,10,15,16.80
2014,06,21,10,16,16.80
2014,06,21,10,17,16.80
2014,06,21,10,18,16.90
2014,06,21,10,19,16.90
2014,06,21,10,20,16.90
2014,06,21,10,21,16.80
2014,06,21,10,22,16.80
2014,06,21,10,23,16.70
2014,06,21,10,24,16.70
2014,06,21,10,25,16.70
2014,06,21,10,26,16.70
2014,06,21,10,27,16.70
2014,06,21,10,28,16.70
2014,06,21,10,29,16.70
2014,06,21,10,30,16.70
2014,06,21,10,31,16.70
2014,06,21,10,32,16.80
2014,06,21,10,33,16.80
2014,06,21,10,34,16.80
2014,06,21,10,35,16.80
2014,06,21,10,36,16.80
2014,06,21,10,37,16.80
2014,06,21,10,38,16.90
2014,06,21,10,39,16.90
2014,06,21,10,40,16.90
2014,06,21,10,41,16.90
2014,06,21,10,42,16.90
2014,06,21,10,43,16.90
2014,06,21,10,44,16.90
2014,06,21,10,45,16.90
2014,06,21,10,46,17.00
2014,06,21,10,47,17.00
2014,06,21,10,48,17.00
2014,06,21,10,49,17.00
2014,06,21,10,50,17.10
2014,06,21,10,51,17.10
2014,06,21,10,52,17.10
2014,06,21,10,53,17.10
2014,06,21,10,54,17.00
2014,06,21,10,55,17.00
2014,06,21,10,56,17.00
2014,06,21,10,57,17.00
2014,06,21,10,58,17.00
2014,06,21,10,59,17.00
2014,06,21,11,00,17.00
2014,06,21,11,01,16.90
2014,06,21,11,02,16.90
2014,06,21,11,03,16.90
2014,06,21,11,04,16.80
2014,06,21,11,05,16.80
2014,06,21,11,06,16.80
2014,06,21,11,07,16.80
2014,06,21,11,08,16.90
2014,06,21,11,09,16.90
2014,06,21,11,10,16.90
2014,06,21,11,11,17.00
2014,06,21,11,12,17.00
2014,06,21,11,13,17.00
2014,06,21,11,14,17.00
2014,06,21,11,15,17.00
2014,06,21,11,16,17.00
2014,06,21,11,17,17.10
2014,06,21,11,18,17.00
2014,06,21,11,19,17.00
2014,06,21,11,20,17.00
2014,06,21,11,21,17.00
2014,06,21,11,22,17.00
2014,06,21,11,23,17.00
2014,06,21,11,24,17.00
2014,06,21,11,25,17.00
2014,06,21,11,26,17.00
2014,06,21,11,27,17.00
2014,06,21,11,28,17.00
2014,06,21,11,29,17.00
2014,06,21,11,30,17.00
2014,06,21,11,31,17.00
2014,06,21,11,32,17.00
2014,06,21,11,33,17.10
2014,06,21,11,34,17.20
2014,06,21,11,35,17.20
2014,06,21,11,36,17.20
2014,06,21,11,37,17.30
2014,06,21,11,38,17.20
2014,06,21,11,39,17.20
2014,06,21,11,40,17.30
2014,06,21,11,41,17.30
2014,06,21,11,42,17.30
2014,06,21,11,43,17.20
2014,06,21,11,44,17.20
2014,06,21,11,45,17.20
2014,06,21,11,46,17.20
2014,06,21,11,47,17.20
2014,06,21,11,48,17.20
2014,06,21,11,49,17.30
2014,06,21,11,50,17.30
2014,06,21,11,51,17.40
2014,06,21,11,52,17.40
2014,06,21,11,53,17.40
2014,06,21,11,54,17.30
2014,06,21,11,55,17.30
2014,06,21,11,56,17.20
2014,06,21,11,57,17.10
2014,06,21,11,58,17.00
2014,06,21,11,59,17.00
2014,06,21,12,00,16.90
2014,06,21,12,01,16.80
2014,06,21,12,02,16.70
2014,06,21,12,03,16.70
2014,06,21,12,04,16.50
2014,06,21,12,05,16.40
2014,06,21,12,06,16.20
2014,06,21,12,07,16.10
2014,06,21,12,08,16.10
2014,06,21,12,09,16.20
2014,06,21,12,10,16.20
2014,06,21,12,11,16.30
2014,06,21,12,12,16.40
2014,06,21,12,13,16.60
2014,06,21,12,14,16.70
2014,06,21,12,15,16.80
2014,06,21,12,16,16.90
2014,06,21,12,17,17.00
2014,06,21,12,18,17.00
2014,06,21,12,19,17.10
2014,06,21,12,20,17.10
2014,06,21,12,21,17.10
2014,06,21,12,22,17.20
2014,06,21,12,23,17.20
2014,06,21,12,24,17.10
2014,06,21,12,25,17.00
2014,06,21,12,26,16.90
2014,06,21,12,27,16.80
2014,06,21,12,28,16.70
2014,06,21,12,29,16.50
2014,06,21,12,30,16.40
2014,06,21,12,31,16.20
2014,06,21,12,32,16.10
2014,06,21,12,33,16.00
2014,06,21,12,34,15.90
2014,06,21,12,35,16.00
2014,06,21,12,36,16.00
2014,06,21,12,37,16.00
2014,06,21,12,38,16.00
2014,06,21,12,39,16.00
2014,06,21,12,40,16.00
2014,06,21,12,41,16.10
2014,06,21,12,42,16.10
2014,06,21,12,43,16.10
2014,06,21,12,44,16.10
2014,06,21,12,45,16.10
2014,06,21,12,46,16.20
2014,06,21,12,47,16.20
2014,06,21,12,48,16.10
2014,06,21,12,49,16.00
2014,06,21,12,50,16.00
2014,06,21,12,51,15.90
2014,06,21,12,52,15.90
2014,06,21,12,53,15.80
2014,06,21,12,54,15.80
2014,06,21,12,55,15.70
2014,06,21,12,56,15.80
2014,06,21,12,57,15.80
2014,06,21,12,58,15.90
2014,06,21,12,59,16.00
2014,06,21,13,00,16.10
2014,06,21,13,01,16.20
2014,06,21,13,02,16.30
2014,06,21,13,03,16.30
2014,06,21,13,04,16.30
2014,06,21,13,05,16.20
2014,06,21,13,06,16.20
2014,06,21,13,07,16.20
2014,06,21,13,08,16.20
2014,06,21,13,09,16.20
2014,06,21,13,10,16.30
2014,06,21,13,11,16.40
2014,06,21,13,12,16.50
2014,06,21,13,13,16.60
2014,06,21,13,14,16.80
2014,06,21,13,15,16.90
2014,06,21,13,16,16.90
2014,06,21,13,17,16.80
2014,06,21,13,18,16.50
2014,06,21,13,19,16.40
2014,06,21,13,20,16.30
2014,06,21,13,21,16.30
2014,06,21,13,22,16.40
2014,06,21,13,23,16.40
2014,06,21,13,24,16.40
2014,06,21,13,25,16.40
2014,06,21,13,26,16.40
2014,06,21,13,27,16.50
2014,06,21,13,28,16.40
2014,06,21,13,29,16.30
2014,06,21,13,30,16.30
2014,06,21,13,31,16.30
2014,06,21,13,32,16.30
2014,06,21,13,33,16.30
2014,06,21,13,34,16.40
2014,06,21,13,35,16.40
2014,06,21,13,36,16.40
2014,06,21,13,37,16.40
2014,06,21,13,38,16.50
2014,06,21,13,39,16.60
2014,06,21,13,40,16.50
2014,06,21,13,41,16.50
2014,06,21,13,42,16.40
2014,06,21,13,43,16.40
2014,06,21,13,44,16.50
2014,06,21,13,45,16.50
2014,06,21,13,46,16.60
2014,06,21,13,47,16.70
2014,06,21,13,48,16.80
2014,06,21,13,49,16.90
2014,06,21,13,50,16.90
2014,06,21,13,51,16.90
2014,06,21,13,52,17.00
2014,06,21,13,53,17.00
2014,06,21,13,54,16.90
2014,06,21,13,55,16.90
2014,06,21,13,56,16.90
2014,06,21,13,57,16.90
2014,06,21,13,58,16.90
2014,06,21,13,59,16.80
2014,06,21,14,00,16.80
2014,06,21,14,01,16.90
2014,06,21,14,02,16.90
2014,06,21,14,03,16.90
2014,06,21,14,04,17.00
2014,06,21,14,05,17.10
2014,06,21,14,06,17.20
2014,06,21,14,07,17.20
2014,06,21,14,08,17.20
2014,06,21,14,09,17.20
2014,06,21,14,10,17.10
2014,06,21,14,11,17.10
2014,06,21,14,12,17.10
2014,06,21,14,13,17.10
2014,06,21,14,14,17.10
2014,06,21,14,15,17.10
2014,06,21,14,16,17.20
2014,06,21,14,17,17.20
2014,06,21,14,18,17.10
2014,06,21,14,19,17.20
2014,06,21,14,20,17.20
2014,06,21,14,21,17.20
2014,06,21,14,22,17.30
2014,06,21,14,23,17.30
2014,06,21,14,24,17.20
2014,06,21,14,25,17.30
2014,06,21,14,26,17.30
2014,06,21,14,27,17.40
2014,06,21,14,28,17.40
2014,06,21,14,29,17.40
2014,06,21,14,30,17.30
2014,06,21,14,31,17.30
2014,06,21,14,32,17.30
2014,06,21,14,33,17.30
2014,06,21,14,34,17.30
2014,06,21,14,35,17.30
2014,06,21,14,36,17.30
2014,06,21,14,37,17.20
2014,06,21,14,38,17.20
2014,06,21,14,39,17.30
2014,06,21,14,40,17.30
2014,06,21,14,41,17.50
2014,06,21,14,42,17.60
2014,06,21,14,43,17.70
2014,06,21,14,44,17.80
2014,06,21,14,45,17.90
2014,06,21,14,46,17.90
2014,06,21,14,47,17.90
2014,06,21,14,48,18.00
2014,06,21,14,49,18.10
2014,06,21,14,50,18.10
2014,06,21,14,51,18.10
2014,06,21,14,52,18.20
2014,06,21,14,53,18.20
2014,06,21,14,54,18.20
2014,06,21,14,55,18.20
2014,06,21,14,56,18.10
2014,06,21,14,57,18.10
2014,06,21,14,58,18.20
2014,06,21,14,59,18.20
2014,06,21,15,00,18.20
2014,06,21,15,01,18.20
2014,06,21,15,02,18.30
2014,06,21,15,03,18.40
2014,06,21,15,04,18.40
2014,06,21,15,05,18.40
2014,06,21,15,06,18.40
2014,06,21,15,07,18.30
2014,06,21,15,08,18.20
2014,06,21,15,09,18.00
2014,06,21,15,10,17.90
2014,06,21,15,11,17.80
2014,06,21,15,12,17.70
2014,06,21,15,13,17.50
2014,06,21,15,14,17.50
2014,06,21,15,15,17.40
2014,06,21,15,16,17.40
2014,06,21,15,17,17.40
2014,06,21,15,18,17.40
2014,06,21,15,19,17.40
2014,06,21,15,20,17.40
2014,06,21,15,21,17.50
2014,06,21,15,22,17.60
2014,06,21,15,23,17.70
2014,06,21,15,24,17.80
2014,06,21,15,25,17.90
2014,06,21,15,26,17.90
2014,06,21,15,27,18.00
2014,06,21,15,28,18.10
2014,06,21,15,29,18.10
2014,06,21,15,30,18.10
2014,06,21,15,31,18.20
2014,06,21,15,32,18.30
2014,06,21,15,33,18.30
2014,06,21,15,34,18.40
2014,06,21,15,35,18.50
2014,06,21,15,36,18.60
2014,06,21,15,37,18.50
2014,06,21,15,38,18.40
2014,06,21,15,39,18.40
2014,06,21,15,40,18.30
2014,06,21,15,41,18.30
2014,06,21,15,42,18.30
2014,06,21,15,43,18.30
2014,06,21,15,44,18.30
2014,06,21,15,45,18.30
2014,06,21,15,46,18.30
2014,06,21,15,47,18.20
2014,06,21,15,48,18.20
2014,06,21,15,49,18.20
2014,06,21,15,50,18.20
2014,06,21,15,51,18.30
2014,06,21,15,52,18.30
2014,06,21,15,53,18.40
2014,06,21,15,54,18.30
2014,06,21,15,55,18.30
2014,06,21,15,56,18.40
2014,06,21,15,57,18.40
2014,06,21,15,58,18.40
2014,06,21,15,59,18.40
2014,06,21,16,00,18.40
2014,06,21,16,01,18.40
2014,06,21,16,02,18.50
2014,06,21,16,03,18.50
2014,06,21,16,04,18.50
2014,06,21,16,05,18.60
2014,06,21,16,06,18.60
2014,06,21,16,07,18.70
2014,06,21,16,08,18.80
2014,06,21,16,09,18.80
2014,06,21,16,10,18.90
2014,06,21,16,11,18.90
2014,06,21,16,12,18.90
2014,06,21,16,13,19.00
2014,06,21,16,14,19.00
2014,06,21,16,15,19.00
2014,06,21,16,16,18.90
2014,06,21,16,17,18.90
2014,06,21,16,18,18.90
2014,06,21,16,19,18.90
2014,06,21,16,20,19.00
2014,06,21,16,21,19.00
2014,06,21,16,22,19.10
2014,06,21,16,23,19.10
2014,06,21,16,24,19.00
2014,06,21,16,25,18.90
2014,06,21,16,26,18.80
2014,06,21,16,27,18.80
2014,06,21,16,28,18.80
2014,06,21,16,29,18.80
2014,06,21,16,30,18.90
2014,06,21,16,31,18.90
2014,06,21,16,32,18.90
2014,06,21,16,33,18.90
2014,06,21,16,34,18.90
2014,06,21,16,35,19.00
2014,06,21,16,36,19.10
2014,06,21,16,37,19.10
2014,06,21,16,38,19.10
2014,06,21,16,39,19.20
2014,06,21,16,40,19.20
2014,06,21,16,41,19.20
2014,06,21,16,42,19.20
2014,06,21,16,43,19.30
2014,06,21,16,44,19.30
2014,06,21,16,45,19.30
2014,06,21,16,46,19.30
2014,06,21,16,47,19.30
2014,06,21,16,48,19.30
2014,06,21,16,49,19.30
2014,06,21,16,50,19.30
2014,06,21,16,51,19.30
2014,06,21,16,52,19.30
2014,06,21,16,53,19.20
2014,06,21,16,54,19.20
2014,06,21,16,55,19.10
2014,06,21,16,56,19.10
2014,06,21,16,57,19.10
2014,06,21,16,58,19.10
2014,06,21,16,59,19.10
2014,06,21,17,00,19.20
2014,06,21,17,01,19.30
2014,06,21,17,02,19.30
2014,06,21,17,03,19.30
2014,06,21,17,04,19.20
2014,06,21,17,05,19.20
2014,06,21,17,06,19.20
2014,06,21,17,07,19.20
2014,06,21,17,08,19.20
2014,06,21,17,09,19.20
2014,06,21,17,10,19.30
2014,06,21,17,11,19.30
2014,06,21,17,12,19.30
2014,06,21,17,13,19.30
2014,06,21,17,14,19.30
2014,06,21,17,15,19.30
2014,06,21,17,16,19.40
2014,06,21,17,17,19.40
2014,06,21,17,18,19.40
2014,06,21,17,19,19.50
2014,06,21,17,20,19.60
2014,06,21,17,21,19.60
2014,06,21,17,22,19.70
2014,06,21,17,23,19.70
2014,06,21,17,24,19.80
2014,06,21,17,25,19.80
2014,06,21,17,26,19.80
2014,06,21,17,27,19.70
2014,06,21,17,28,19.60
2014,06,21,17,29,19.60
2014,06,21,17,30,19.50
2014,06,21,17,31,19.50
2014,06,21,17,32,19.40
2014,06,21,17,33,19.30
2014,06,21,17,34,19.30
2014,06,21,17,35,19.30
2014,06,21,17,36,19.30
2014,06,21,17,37,19.40